This demonstration page uses our WeatherBlox Daily Observations layout. Learn more.

Left ArrowRight Arrow

Hourly Observations for May 1, 2015

Temp ( °F °C ) Dew Point ( °F °C ) Humidity (%) Winds ( mph kmh ) Pressure ( in mb ) Visibility ( mi km ) Precip ( " mm )
12:58 am 00:58 Clear 57 13.8 39 3.7 51 51 ESE 5 7 30.04 1017 10 16 0.00 0.00
1:58 am 01:58 Clear 51 10.8 39 3.8 62 62 E 7 11 30.04 1017 10 16 0.00 0.00
2:58 am 02:58 Clear 52 10.9 39 3.7 61 61 E 5 7 30.04 1017 10 16 0.00 0.00
3:58 am 03:58 Clear 45 7.3 39 4.1 80 80 E 5 7 30.06 1018 10 16 0.00 0.00
4:58 am 04:58 Clear 46 7.6 38 3.5 76 76 E 6 9 30.06 1018 10 16 0.00 0.00
5:58 am 05:58 Mostly Cloudy 44 6.7 38 3.4 80 80 E 5 7 30.09 1019 10 16 0.00 0.00
6:58 am 06:58 Mostly Sunny 48 9 40 4.4 73 73 E 7 11 30.10 1019 10 16 0.00 0.00
7:58 am 07:58 Mostly Cloudy 54 12.2 42 5.4 63 63 SE 9 15 30.11 1020 10 16 0.00 0.00
8:58 am 08:58 Cloudy 55 12.8 42 5.4 61 61 ESE 6 9 30.12 1020 10 16 0.00 0.00
9:58 am 09:58 Cloudy 56 13.6 42 5.4 58 58 E 6 9 30.12 1020 10 16 0.00 0.00
10:58 am 10:58 Mostly Cloudy 58 14.5 41 5.1 54 54 SE 6 9 30.11 1020 10 16 0.00 0.00
11:38 am 11:38 Cloudy with Light Rain 59 15 43 6 55 55 E 5 7 30.12 1020 10 16 0.00 0.00
11:45 am 11:45 Cloudy 59 15 45 7 59 59 E 5 7 30.12 1020 10 16 0.00 0.00
11:58 am 11:58 Cloudy 58 14.5 44 6.8 60 60 E 5 7 30.12 1020 10 16 0.00 0.03
12:58 pm 12:58 Cloudy 59 15.1 45 7.4 60 60 E 5 7 30.11 1020 10 16 0.00 0.00
1:40 pm 13:40 Mostly Cloudy 61 16 43 6 52 52 E 9 15 30.09 1019 10 16 0.00 0.00
1:58 pm 13:58 Cloudy 62 16.4 43 6.3 51 51 E 7 11 30.09 1019 10 16 0.00 0.00
2:41 pm 14:41 Mostly Cloudy with Light Rain 63 17 46 8 56 56 E 5 7 30.03 1017 10 16 0.00 0.00
2:50 pm 14:50 Partly Cloudy 63 17 45 7 52 52 E 6 9 30.03 1017 10 16 0.00 0.00
2:55 pm 14:55 Partly Cloudy with Light Rain 63 17 45 7 52 52 E 7 11 30.03 1017 10 16 0.00 0.00
2:58 pm 14:58 Partly Cloudy with Light Rain 63 17.3 45 7.2 52 52 E 8 13 30.07 1018 10 16 0.00 0.03
3:05 pm 15:05 Mostly Cloudy 63 17 45 7 52 52 E 8 13 30.03 1017 10 16 0.00 0.00
3:58 pm 15:58 Cloudy 64 17.7 47 8.3 54 54 ESE 9 15 30.04 1017 10 16 0.00 0.03
4:58 pm 16:58 Cloudy 68 19.8 48 9 50 50 E 8 13 30.02 1017 10 16 0.00 0.00
5:58 pm 17:58 Mostly Cloudy 68 19.8 47 8.2 47 47 E 7 11 30.01 1016 10 16 0.00 0.00
6:58 pm 18:58 Mostly Cloudy 67 19.2 46 7.5 47 47 E 7 11 30.00 1016 10 16 0.00 0.00
7:58 pm 19:58 Mostly Cloudy 65 18.6 45 7.3 48 48 E 7 11 30.00 1016 10 16 0.00 0.00
8:58 pm 20:58 Partly Cloudy 63 17.2 44 6.9 51 51 E 6 9 30.01 1016 10 16 0.00 0.00
9:58 pm 21:58 Clear 57 13.7 44 6.7 63 63 E 6 9 30.02 1017 10 16 0.00 0.00
10:58 pm 22:58 Clear 60 15.5 44 6.8 56 56 ESE 6 9 30.02 1017 10 16 0.00 0.00
11:58 pm 23:58 Clear 55 12.8 44 6.9 68 68 ESE 6 9 30.02 1017 10 16 0.00 0.00

Powered by AerisWeather